Location: Kuffner-Sternwarte
(48.2130°N, 16.2960°E)
Time: 05:11:27
(UTC+02:00)

Envisat - Pass Details

Date: 22 September 2024
Orbit: 762 x 764 km, 98.3° (Epoch: 04 October)

Event Time Altitude Azimuth Distance (km) Brightness Sun altitude
Rises 03:21:47 0° 22° (NNE) 3,237 7.1 -31.2°
Reaches altitude 10° 03:24:20 10° 32° (NNE) 2,306 6.3 -30.9°
Maximum altitude 03:28:52 32° 95° (E) 1,287 4.4 -30.4°
Enters shadow 03:29:54 30° 119° (ESE) 1,357 4.4 -30.2°
